This is the latest recevied weather packets stored in our database for station/object N4YH-13. If no packets are shown the sender has not sent any weather packets the latest 1 day(s).
| Time | Temp. | Humidity | Pressure | Rain* | Wind** | Luminosity | Snow |
|---|---|---|---|---|---|---|---|
| 1777998003 | 20.56° C | 62% | 1013.3 hPa | 0 mm | 1.34 m/s, 182° | - | - |
| 1777997883 | 20.56° C | 62% | 1013.2 hPa | 0 mm | 1.34 m/s, 189° | - | - |
| 1777997764 | 20.56° C | 62% | 1013.1 hPa | 0 mm | 1.34 m/s, 184° | - | - |
| 1777997644 | 21.11° C | 61% | 1013.1 hPa | 0 mm | 1.34 m/s, 179° | - | - |
| 1777997523 | 20.56° C | 61% | 1013.1 hPa | 0 mm | 1.34 m/s, 173° | - | - |
| 1777997403 | 20.56° C | 61% | 1013.1 hPa | 0 mm | 1.34 m/s, 179° | - | - |
| 1777997283 | 20.56° C | 64% | 1013.2 hPa | 0 mm | 1.34 m/s, 172° | - | - |
| 1777997163 | 20.56° C | 64% | 1013.2 hPa | 0 mm | 0.89 m/s, 171° | - | - |
| 1777997044 | 20.56° C | 65% | 1013.3 hPa | 0 mm | 1.34 m/s, 171° | - | - |
| 1777996924 | 20.56° C | 66% | 1013.5 hPa | 0 mm | 0.89 m/s, 171° | - | - |
| 1777996804 | 20° C | 67% | 1013.4 hPa | 0 mm | 1.34 m/s, 172° | - | - |
| 1777996684 | 20° C | 67% | 1013.4 hPa | 0 mm | 0.89 m/s, 171° | - | - |
| 1777996563 | 20° C | 69% | 1013.4 hPa | 0 mm | 0.89 m/s, 171° | - | - |
| 1777996443 | 19.44° C | 70% | 1013.4 hPa | 0 mm | 0.89 m/s, 171° | - | - |
| 1777996323 | 19.44° C | 68% | 1013.4 hPa | 0 mm | 0.89 m/s, 171° | - | - |
| 1777996203 | 19.44° C | 69% | 1013.3 hPa | 0 mm | 0.89 m/s, 171° | - | - |
| 1777996084 | 19.44° C | 67% | 1013.5 hPa | 0 mm | 1.34 m/s, 171° | - | - |
| 1777995964 | 19.44° C | 67% | 1013.5 hPa | 0 mm | 1.34 m/s, 171° | - | - |
| 1777995843 | 20° C | 67% | 1013.5 hPa | 0 mm | 0.89 m/s, 171° | - | - |
| 1777995723 | 20° C | 67% | 1013.5 hPa | 0 mm | 0.89 m/s, 171° | - | - |
| 1777995603 | 20° C | 67% | 1013.5 hPa | 0 mm | 0.89 m/s, 171° | - | - |
| 1777995483 | 20° C | 69% | 1013.5 hPa | 0 mm | 0.45 m/s, 171° | - | - |
| 1777995364 | 19.44° C | 68% | 1013.5 hPa | 0 mm | 0.89 m/s, 171° | - | - |
| 1777995244 | 19.44° C | 69% | 1013.5 hPa | 0 mm | 0.89 m/s, 171° | - | - |
| 1777995124 | 19.44° C | 70% | 1013.5 hPa | 0 mm | 0.89 m/s, 171° | - | - |
* Rain latest hour (hover to see other rain measurements)
** Current wind speed in m/s (hover to see current wind gust speed)